STARLINK-35345, 65833

Orbit data source: Space-Track

STARLINK-35345, 65833 is a payload satellite owned by SpaceX/Seattle (US) in LEO that was launched on Mon, 29 Sep 2025 UTC via an FALCON 9 launch vehicle from the Air Force Western Test Range (AFWTR). Payload-class satellites include a variety of spacecraft equipped with specific instruments for various scientific and technological missions. These include communications satellites like Starlink; space stations such as the ISS; scientific satellites like the Hubble; Earth observation satellites from companies like Planet Labs, Umbra, and HawkEye 360; GPS; miniature CubeSats for education and research; and military/defense satellites.

Loading next visibility...
Identifier
65833, 2025-221L
Orbit
LEO
Country
Flag of USUS
Related business
Manufacturer
SpaceX/Seattle
Mission
Operational Commercial Communications
Bus & Motor
STARLINK V2MO, Unknown motor
Mass
575 kg wet, ~530 kg dry
Launch date (UTC)
2025-09-29 (2 months ago)
Launch vehicle
FALCON 9
Launch site
Air Force Western Test Range (AFWTR)
Object type
Payload
Rocket body
Debris
Shape & HBR
Box + 2 Pan, 17.7 m
Radar Cross Section
36.964 m²

Expand to show TLE details & history
Last TLE update: 15 hours ago

TLE from 15 hours ago
0 STARLINK-35345
1 65833U 25221L   25340.53972292  .00055851  00000-0  18825-2 0  9990
2 65833  53.1577 160.8771 0001204  84.9274 275.1864 15.30220234 11823
Epoch: 2025-12-06T12:57Z
TLE epoch observation values (Epoch: 2025-12-06T12:57:12.060Z)
Latitude
-0.00002°
Longitude
-108.98917°
Altitude
475.98 km
Speed
7.629 km/s
True Right ascension
10h 43m 30s
True Declination
0° 00' 00"
Sunlit
Object was in daylight at epoch
Visualization orbit readout
Latitude
Unknown
Longitude
Unknown
Altitude
Unknown
Speed
Unknown
Apparent Right ascension
Unknown
Apparent Declination
Unknown
Sunlit
N/A
Visualization observer readout
Local Sidereal Time
02:15:57
Azimuth
Unknown
Elevation
Unknown
Doppler factor
Unknown
Orbital elements
Apogee altitude
476.237 km
Perigee altitude
474.586 km
Semi-major axis
6,853.548 km
Eccentricity
0.00012
Inclination
53.1577°
RAAN
160.8771°
Arg. of periapsis
84.9274°
True anomaly
275.17266°
Mean anomaly
275.1864°
Eccentric anomaly
275.17953°
Mean motion
3.82534 °/min
Orbital period
94.11 mins
BSTAR
0.0018825
Loading maneuver chart data...
Computing Atmospheric mass density...
Loading historical data...
Loading historical data...
Loading historical data...
Loading historical data...
Loading historical data...
Loading historical data...
Loading historical data...

Documentation

Showing up to 5 results
|